Hourly Data Report for August 05, 2021

ALGONQUIN PARK EAST GATE
ONTARIO
Current Station Operator: ECCC - MSC

45°32'00.000" N
78°16'00.000" W
397.00 m
6080192
71581
TNK

Download Data

Hourly Data (August 2021)
Hourly Data Report for August 5, 2021
TIME
LST
Temp Definition
°C
Dew Point Definition
°C
Rel Hum Definition
%
Precip. Amount Definition
mm

Wind Dir Definition
10's deg

Wind Spd Definition
km/h
Visibility Definition
km
Stn Press Definition
kPa
Hmdx Definition


Wind Chill Definition


Weather Definition


00:00 12.2 11.6 96 0.0   0   97.37     LegendNANA
01:00 11.3 10.8 97 0.0   0   97.36     LegendNANA
02:00 10.7 10.3 97 0.0   0   97.34     LegendNANA
03:00 10.0 9.6 97 0.0   0   97.34     LegendNANA
04:00 9.6 9.2 97 0.0   0   97.33     LegendNANA
05:00 9.5 9.1 97 0.0   0   97.35     LegendNANA
06:00 10.0 9.6 98 0.0   0   97.36     LegendNANA
07:00 12.7 11.8 95 0.0   0   97.37     LegendNANA
08:00 17.6 14.4 82 0.0 21 2   97.38     LegendNANA
09:00 21.5 14.1 63 0.0 24 4   97.35 25   LegendNANA
10:00 23.9 12.9 50 0.0 23 5   97.34 27   LegendNANA
11:00 25.2 13.9 50 0.0 21 6   97.31 29   LegendNANA
12:00 26.1 13.7 47 0.0 24 5   97.28 29   LegendNANA
13:00 26.3 13.6 46 0.0 26 4   97.25 29   LegendNANA
14:00 26.6 13.2 43 0.0 24 6   97.20 30   LegendNANA
15:00 26.8 14.1 46 0.0 23 6   97.17 30   LegendNANA
16:00 26.8 14.4 46 0.0 25 4   97.16 30   LegendNANA
17:00 25.6 14.1 49 0.0 28 4   97.13 29   LegendNANA
18:00 23.7 15.7 61 0.0 0 1   97.10 28   LegendNANA
19:00 21.0 17.0 78 0.0   0   97.12 26   LegendNANA
20:00 18.0 15.2 83 0.0   0   97.13     LegendNANA
21:00 16.3 15.1 92 0.0   0   97.17     LegendNANA
22:00 14.7 13.7 94 0.0   0   97.16     LegendNANA
23:00 13.7 13.0 96 0.0   0   97.19     LegendNANA

Notes on Data Quality.

Legend

  • E = Estimated
  • M = Missing
  • NA = Not Available*
  • [empty] = Indicates an unobserved value
Date modified: